This demonstration page uses our WeatherBlox Daily Observations layout. Learn more.

Left ArrowRight Arrow

36.17497, -115.13722

Hourly Observations for December 8, 2019

Temp ( °F °C ) Dew Point ( °F °C ) Humidity (%) Winds ( mph kmh ) Pressure ( in mb ) Visibility ( mi km ) Precip ( " mm )
12:53 am 00:53 Clear 54 12.2 48 8.9 80 80 ENE 12 19 30.00 1016 10 16 0.00 0.00
1:53 am 01:53 Clear 54 12.2 48 8.9 80 80 E 9 15 30.00 1016 10 16 0.00 0.00
2:53 am 02:53 Mostly Clear 53 11.7 48 8.9 83 83 E 10 17 29.98 1015 10 16 0.00 0.00
3:53 am 03:53 Clear 53 11.7 48 8.9 83 83 E 6 9 29.96 1015 10 16 0.00 0.00
4:53 am 04:53 Clear 51 10.6 48 8.9 89 89 NNW 8 13 29.96 1015 10 16 0.00 0.00
5:53 am 05:53 Clear 52 11.1 49 9.4 89 89 NE 7 11 29.97 1015 10 16 0.00 0.00
6:53 am 06:53 Sunny 51 10.6 48 8.9 89 89 NW 5 7 29.98 1015 10 16 0.00 0.00
7:29 am 07:29 Mostly Sunny 52 11.1 49 9.4 89 89 NW 6 9 29.94 1014 10 16 0.00 0.00
7:53 am 07:53 Sunny 52 11.1 49 9.4 89 89 N 6 9 29.98 1015 10 16 0.00 0.00
8:53 am 08:53 Sunny 54 12.2 50 10 87 87 NW 6 9 29.99 1016 10 16 0.00 0.00
9:53 am 09:53 Sunny 56 13.3 49 9.4 77 77 NNW 9 15 30.00 1016 10 16 0.00 0.00
10:53 am 10:53 Sunny 57 13.9 48 8.9 72 72 NNW 7 11 29.99 1016 10 16 0.00 0.00
11:53 am 11:53 Sunny 59 15 49 9.4 69 69 NNW 5 7 29.96 1015 10 16 0.00 0.00
12:53 pm 12:53 Mostly Cloudy 59 15 47 8.3 64 64 Calm 29.94 1014 10 16 0.00 0.00
1:53 pm 13:53 Cloudy 62 16.7 47 8.3 58 58 Calm 29.93 1013 10 16 0.00 0.00
2:53 pm 14:53 Cloudy 61 16.1 47 8.3 60 60 NNW 5 7 29.93 1014 10 16 0.00 0.00
3:53 pm 15:53 Mostly Cloudy 60 15.6 42 5.6 52 52 NW 18 30 29.93 1014 10 16 0.00 0.00
4:53 pm 16:53 Cloudy 59 15 40 4.4 49 49 WNW 13 20 29.94 1014 10 16 0.00 0.00
5:53 pm 17:53 Mostly Cloudy 57 13.9 41 5 55 55 N 6 9 29.96 1015 10 16 0.00 0.00
6:53 pm 18:53 Cloudy 56 13.3 40 4.4 55 55 NNW 6 9 29.98 1015 10 16 0.00 0.00
7:53 pm 19:53 Cloudy with Light Rain 55 12.8 42 5.6 62 62 NNW 20 31 29.97 1015 10 16 0.00 0.00
8:53 pm 20:53 Mostly Clear 54 12.2 40 4.4 59 59 NNW 13 20 29.98 1015 10 16 0.00 0.00
9:53 pm 21:53 Cloudy 54 12.2 40 4.4 59 59 NW 7 11 30.01 1016 10 16 0.00 0.00
10:53 pm 22:53 Cloudy 53 11.7 40 4.4 61 61 NW 8 13 30.01 1016 10 16 0.00 0.00
11:53 pm 23:53 Cloudy 54 12.2 40 4.4 59 59 NW 14 22 30.02 1017 10 16 0.00 0.00

Powered by AerisWeather